KQ4KX Weather Reports


time (UTC)temp
C
wind
direction
speed
KPH
gust
KPH
rain 1hr
cm
rain 24hr
cm
rain mn
cm
humidity
%
barometer
mb
20260902225934 26 89 0.0 1.6 0.00 0.00 0.00 90 1014.1
20260902224904 26 90 1.6 4.8 0.00 0.00 0.00 90 1013.7
20260902224628 26 78 1.6 3.2 0.00 0.00 0.00 90 1013.6
20260902224405 26 78 1.6 3.2 0.00 0.00 0.00 90 1013.6
20260902223708 26 44 1.6 4.8 0.00 0.00 0.00 90 1014.0
20260902223334 26 44 1.6 4.8 0.00 0.00 0.00 90 1014.0
20260902223151 26 15 1.6 4.8 0.00 0.00 0.00 90 1014.3
20260902222834 26 15 1.6 4.8 0.00 0.00 0.00 90 1014.3
20260902220805 27 75 3.2 11.3 0.00 0.00 0.00 92 1014.1
20260902220037 27 44 3.2 4.8 0.00 0.00 0.00 92 1013.9
20260902215734 27 44 3.2 4.8 0.00 0.00 0.00 92 1013.9
20260902215234 27 42 3.2 4.8 0.00 0.00 0.00 92 1013.6
20260902215121 27 34 3.2 4.8 0.00 0.00 0.00 90 1013.7
20260902214733 27 34 3.2 4.8 0.00 0.00 0.00 90 1013.7
20260902214234 27 29 3.2 8.0 0.00 0.00 0.00 90 1013.8
20260902212733 27 28 4.8 12.9 0.00 0.00 0.00 91 1013.3
20260902212328 27 33 3.2 12.9 0.00 0.00 0.00 90 1013.4
20260902212203 27 33 3.2 12.9 0.00 0.00 0.00 90 1013.4
20260902211103 27 345 4.8 8.0 0.00 0.00 0.00 91 1013.9
20260902205003 27 331 4.8 11.3 0.00 0.00 0.00 85 1014.3
20260902204700 27 326 6.4 12.9 0.00 0.00 0.00 85 1014.0
20260902204433 27 326 6.4 12.9 0.00 0.00 0.00 85 1014.0
20260902203658 28 352 4.8 9.7 0.00 0.00 0.00 82 1013.6
20260902203334 28 352 4.8 9.7 0.00 0.00 0.00 82 1013.6
20260902203117 29 353 4.8 8.0 0.00 0.00 0.00 83 1013.9
20260902202833 29 353 4.8 8.0 0.00 0.00 0.00 83 1013.9
20260902202333 30 4 4.8 14.5 0.00 0.00 0.00 83 1013.9
20260902201011 31 82 11.3 20.9 0.00 0.00 0.00 79 1013.6
20260902200734 31 82 11.3 20.9 0.00 0.00 0.00 79 1013.6
20260902195633 32 94 9.7 25.7 0.00 0.00 0.00 75 1013.6
20260902195437 33 102 4.8 16.1 0.00 0.00 0.00 71 1013.6
20260902195133 33 102 4.8 16.1 0.00 0.00 0.00 71 1013.6
20260902194826 34 108 3.2 9.7 0.00 0.00 0.00 71 1013.6
20260902194633 34 108 3.2 9.7 0.00 0.00 0.00 71 1013.6
20260902194133 33 94 3.2 6.4 0.00 0.00 0.00 72 1013.6
20260902193816 34 72 1.6 4.8 0.00 0.00 0.00 69 1013.6
20260902193633 34 72 1.6 4.8 0.00 0.00 0.00 69 1013.6
20260902193103 34 69 3.2 6.4 0.00 0.00 0.00 70 1013.7
20260902190003 33 46 3.2 6.4 0.00 0.00 0.00 72 1014.2
20260902185003 33 91 4.8 9.7 0.00 0.00 0.00 73 1014.4
20260902184003 33 3 1.6 4.8 0.00 0.00 0.00 71 1014.6
20260902182933 32 87 3.2 6.4 0.00 0.00 0.00 75 1014.7
20260902182806 32 88 3.2 6.4 0.00 0.00 0.00 73 1014.8
20260902182433 32 88 3.2 6.4 0.00 0.00 0.00 73 1014.8
20260902181403 32 89 3.2 9.7 0.00 0.00 0.00 76 1015.0
20260902181211 31 89 3.2 9.7 0.00 0.00 0.00 77 1015.0
20260902180903 31 89 3.2 9.7 0.00 0.00 0.00 77 1015.0
20260902180333 31 82 3.2 6.4 0.00 0.00 0.00 77 1015.0
20260902180218 31 79 1.6 6.4 0.00 0.00 0.00 78 1015.1
20260902175833 31 79 1.6 6.4 0.00 0.00 0.00 78 1015.1
20260902170003 32 77 3.2 11.3 0.00 0.00 0.00 75 1015.8
20260902165503 32 64 3.2 6.4 0.00 0.00 0.00 74 1015.8
20260902165003 32 55 3.2 6.4 0.00 0.00 0.00 75 1015.9
20260902164503 32 28 3.2 6.4 0.00 0.00 0.00 76 1015.8
20260902163933 32 24 3.2 8.0 0.00 0.00 0.00 78 1016.0
20260902163405 32 45 3.2 8.0 0.00 0.00 0.00 77 1016.0
20260902163300 32 63 3.2 8.0 0.00 0.00 0.00 80 1016.1
20260902162903 32 63 3.2 8.0 0.00 0.00 0.00 80 1016.1
20260902161903 31 79 4.8 11.3 0.00 0.00 0.00 81 1016.3
20260902160903 31 18 3.2 8.0 0.00 0.00 0.00 81 1016.5
20260902160210 31 13 4.8 6.4 0.00 0.00 0.00 83 1016.5
20260902155903 31 13 4.8 6.4 0.00 0.00 0.00 83 1016.5
20260902155404 31 18 3.2 6.4 0.00 0.00 0.00 82 1016.5
20260902155144 30 21 3.2 4.8 0.00 0.00 0.00 84 1016.6
20260902154833 30 21 3.2 4.8 0.00 0.00 0.00 84 1016.6
20260902154333 30 51 3.2 4.8 0.00 0.00 0.00 81 1016.8
20260902152515 31 28 3.2 6.4 0.00 0.00 0.00 83 1016.9
20260902152233 31 28 3.2 6.4 0.00 0.00 0.00 83 1016.9
20260902152015 31 27 3.2 6.4 0.00 0.00 0.00 83 1016.9
20260902151733 31 27 3.2 6.4 0.00 0.00 0.00 83 1016.9
20260902145633 30 24 3.2 6.4 0.00 0.00 0.00 87 1016.8
20260902144633 30 57 3.2 6.4 0.00 0.00 0.00 87 1016.8
20260902143634 28 51 3.2 9.7 0.00 0.00 0.00 90 1016.6
20260902141817 28 49 3.2 4.8 0.00 0.00 0.00 92 1016.6
20260902141604 28 49 3.2 4.8 0.00 0.00 0.00 92 1016.6
20260902141103 28 32 3.2 4.8 0.00 0.00 0.00 92 1016.7
20260902140003 28 70 3.2 9.7 0.00 0.00 0.00 93 1016.6
20260902135759 27 76 3.2 9.7 0.00 0.00 0.00 93 1016.7
20260902135434 27 76 3.2 9.7 0.00 0.00 0.00 93 1016.7
20260902135216 27 62 3.2 6.4 0.00 0.00 0.00 94 1016.6
20260902134933 27 62 3.2 6.4 0.00 0.00 0.00 94 1016.6
20260902133833 27 41 3.2 6.4 0.00 0.00 0.00 95 1016.6
20260902133333 27 38 3.2 6.4 0.00 0.00 0.00 95 1016.7
20260902132834 27 27 3.2 4.8 0.00 0.00 0.00 95 1016.8
20260902131948 27 32 3.2 6.4 0.00 0.00 0.00 96 1016.7
20260902131734 27 32 3.2 6.4 0.00 0.00 0.00 96 1016.7
20260902131235 27 24 3.2 4.8 0.00 0.00 0.00 97 1016.6
20260902125633 26 23 3.2 6.4 0.00 0.00 0.00 98 1016.6
20260902125103 26 29 3.2 6.4 0.00 0.00 0.00 98 1016.6
20260902124604 26 21 3.2 6.4 0.00 0.00 0.00 98 1016.6
20260902124331 26 21 3.2 4.8 0.00 0.00 0.00 99 1016.6
20260902124033 26 21 3.2 4.8 0.00 0.00 0.00 99 1016.6
20260902123533 26 24 3.2 4.8 0.00 0.00 0.00 99 1016.7
20260902123004 26 21 3.2 4.8 0.00 0.00 0.00 100 1016.8
20260902122710 26 18 3.2 4.8 0.00 0.00 0.00 100 1016.7
20260902122433 26 18 3.2 4.8 0.00 0.00 0.00 100 1016.7
20260902121933 25 20 1.6 4.8 0.00 0.00 0.00 100 1016.7
20260902121144 25 14 3.2 4.8 0.00 0.00 0.00 100 1016.6
20260902120905 25 14 3.2 4.8 0.00 0.00 0.00 100 1016.6
20260902114537 25 22 1.6 3.2 0.00 0.00 0.00 100 1016.4
20260902114234 25 22 1.6 3.2 0.00 0.00 0.00 100 1016.4
20260902113953 25 20 1.6 3.2 0.00 0.00 0.00 100 1016.3
20260902113733 25 20 1.6 3.2 0.00 0.00 0.00 100 1016.3
20260902110604 25 21 3.2 4.8 0.00 0.00 0.00 100 1015.8
20260902110339 25 19 3.2 4.8 0.00 0.00 0.00 100 1015.7
20260902105033 25 20 1.6 4.8 0.00 0.00 0.00 100 1015.7
20260902104534 25 9 3.2 4.8 0.00 0.00 0.00 100 1015.7
20260902104004 25 7 1.6 4.8 0.00 0.00 0.00 100 1015.7
20260902103504 25 19 3.2 4.8 0.00 0.00 0.00 100 1015.7
20260902103333 25 21 3.2 4.8 0.00 0.00 0.00 100 1015.6
20260902102934 25 21 3.2 4.8 0.00 0.00 0.00 100 1015.6
20260902102433 25 16 3.2 4.8 0.00 0.00 0.00 100 1015.6
20260902102246 25 10 3.2 4.8 0.00 0.00 0.00 100 1015.6
20260902101935 25 10 3.2 4.8 0.00 0.00 0.00 100 1015.6
20260902101657 25 12 1.6 4.8 0.00 0.00 0.00 100 1015.5
20260902101404 25 12 1.6 4.8 0.00 0.00 0.00 100 1015.5
20260902100528 25 12 1.6 4.8 0.00 0.00 0.00 99 1015.5
20260902100334 25 12 1.6 4.8 0.00 0.00 0.00 99 1015.5
20260902094733 25 23 1.6 3.2 0.00 0.00 0.00 99 1015.5
20260902094234 25 8 1.6 3.2 0.00 0.00 0.00 99 1015.5
20260902093614 33 101 8.0 14.5 0.00 0.84 0.00 70 1017.1
20260902093612 33 104 8.0 14.5 0.00 0.84 0.00 74 1017.2
20260902093133 25 13 1.6 3.2 0.00 0.00 0.00 99 1015.4
20260902092910 25 14 1.6 4.8 0.00 0.00 0.00 99 1015.5
20260902092633 25 14 1.6 4.8 0.00 0.00 0.00 99 1015.5
20260902092103 25 11 1.6 4.8 0.00 0.00 0.00 99 1015.5
20260902091033 25 4 1.6 3.2 0.00 0.00 0.00 99 1015.4
20260902090534 25 5 1.6 3.2 0.00 0.00 0.00 99 1015.3
20260902090139 25 15 1.6 3.2 0.00 0.00 0.00 99 1015.3
20260902090004 25 15 1.6 3.2 0.00 0.00 0.00 99 1015.3
20260902085714 25 25 1.6 4.8 0.00 0.00 0.00 99 1015.2
20260902085433 25 25 1.6 4.8 0.00 0.00 0.00 99 1015.2
20260902083834 25 359 1.6 3.2 0.00 0.00 0.00 98 1015.2
20260902083806 25 1 1.6 3.2 0.00 0.00 0.00 98 1015.3
20260902083333 25 1 1.6 3.2 0.00 0.00 0.00 98 1015.3
20260902082833 25 13 1.6 3.2 0.00 0.00 0.00 98 1015.2
20260902080803 25 9 1.6 3.2 0.00 0.00 0.00 98 1015.2
20260902075548 25 20 1.6 3.2 0.00 0.00 0.00 97 1015.2
20260902075233 25 20 1.6 3.2 0.00 0.00 0.00 97 1015.2
20260902074954 25 31 0.0 3.2 0.00 0.00 0.00 97 1015.3
20260902074733 25 31 0.0 3.2 0.00 0.00 0.00 97 1015.3
20260902072133 25 9 1.6 3.2 0.00 0.00 0.00 98 1015.3
20260902071833 25 27 1.6 3.2 0.00 0.00 0.00 98 1015.4
20260902071633 25 27 1.6 3.2 0.00 0.00 0.00 98 1015.4
20260902071026 25 54 1.6 3.2 0.00 0.00 0.00 98 1015.4
20260902070634 25 54 1.6 3.2 0.00 0.00 0.00 98 1015.4
20260902065913 25 57 1.6 3.2 0.00 0.00 0.00 97 1015.4
20260902065603 25 57 1.6 3.2 0.00 0.00 0.00 97 1015.4
20260902065033 25 57 1.6 3.2 0.00 0.00 0.00 97 1015.5
20260902064533 25 57 1.6 3.2 0.00 0.00 0.00 97 1015.5
20260902064033 25 57 0.0 1.6 0.00 0.00 0.00 97 1015.6
20260902063533 25 57 0.0 1.6 0.00 0.00 0.00 97 1015.6
20260902063003 25 57 0.0 1.6 0.00 0.00 0.00 97 1015.7
20260902062706 25 57 0.0 1.6 0.00 0.00 0.00 97 1015.7
20260902062433 25 57 0.0 1.6 0.00 0.00 0.00 97 1015.7
20260902061933 25 57 0.0 1.6 0.00 0.00 0.00 97 1015.6
20260902061223 25 57 0.0 1.6 0.00 0.00 0.00 97 1015.8
20260902060933 25 57 0.0 1.6 0.00 0.00 0.00 97 1015.8
20260902055333 25 0 0.0 0.0 0.00 0.00 0.00 97 1015.9
20260902054805 25 0 0.0 0.0 0.00 0.00 0.00 97 1015.9
20260902054233 25 0 0.0 0.0 0.00 0.00 0.00 96 1015.9
20260902053733 25 0 0.0 0.0 0.00 0.00 0.00 96 1015.8
20260902052419 25 0 0.0 0.0 0.00 0.00 0.00 96 1016.0
20260902052133 25 0 0.0 0.0 0.00 0.00 0.00 96 1016.0
20260902052006 25 0 0.0 0.0 0.00 0.00 0.00 96 1016.0
20260902051633 25 0 0.0 0.0 0.00 0.00 0.00 96 1016.0
20260902051133 25 0 0.0 0.0 0.00 0.00 0.00 96 1016.0
20260902050451 25 0 0.0 0.0 0.00 0.00 0.00 96 1016.0
20260902050133 25 0 0.0 0.0 0.00 0.00 0.00 96 1016.0
20260902045603 25 0 0.0 0.0 0.00 0.00 0.00 96 1016.0
20260902045103 25 0 0.0 0.0 0.00 0.00 0.00 96 1016.0
20260902044603 25 0 0.0 0.0 0.00 0.00 0.00 96 1016.0
20260902044103 26 57 0.0 1.6 0.00 0.00 0.00 96 1016.1
20260902043533 26 57 0.0 1.6 0.00 0.00 0.00 95 1016.1
20260902043033 26 57 0.0 1.6 0.00 0.00 0.00 95 1016.2
20260902042818 26 0 0.0 0.0 0.00 0.00 0.00 95 1016.1
20260902042503 26 0 0.0 0.0 0.00 0.00 0.00 95 1016.1
20260902042356 26 0 0.0 0.0 0.00 0.00 0.00 94 1016.3
20260902041933 26 0 0.0 0.0 0.00 0.00 0.00 94 1016.3
20260902041744 26 0 0.0 1.6 0.00 0.00 0.00 94 1016.5
20260902041433 26 0 0.0 1.6 0.00 0.00 0.00 94 1016.5
20260902040333 26 57 0.0 1.6 0.00 0.00 0.00 93 1016.3
20260902033733 26 55 1.6 3.2 0.00 0.00 0.00 93 1016.6
20260902033233 26 55 0.0 3.2 0.00 0.00 0.00 93 1016.7
20260902032733 26 55 0.0 1.6 0.00 0.00 0.00 92 1016.6
20260902031903 27 55 0.0 1.6 0.00 0.00 0.00 91 1016.7
20260902031633 27 55 0.0 1.6 0.00 0.00 0.00 91 1016.7
20260902031133 27 56 0.0 3.2 0.00 0.00 0.00 91 1016.7
20260902030603 27 70 1.6 3.2 0.00 0.00 0.00 91 1016.7
20260902030326 27 79 3.2 4.8 0.00 0.00 0.00 91 1016.7
20260902030103 27 79 3.2 4.8 0.00 0.00 0.00 91 1016.7
20260902025533 27 81 3.2 9.7 0.00 0.00 0.00 91 1016.7
20260902025215 27 85 3.2 9.7 0.00 0.00 0.00 90 1016.8
20260902025003 27 85 3.2 9.7 0.00 0.00 0.00 90 1016.8
20260902024810 27 90 4.8 11.3 0.00 0.00 0.00 90 1016.9
20260902024433 27 90 4.8 11.3 0.00 0.00 0.00 90 1016.9
20260902023933 27 89 4.8 11.3 0.00 0.00 0.00 90 1016.9
20260902023721 27 89 4.8 9.7 0.00 0.00 0.00 90 1016.8
20260902023403 27 89 4.8 9.7 0.00 0.00 0.00 90 1016.8
20260902022333 27 82 3.2 12.9 0.00 0.00 0.00 89 1016.7
20260902021233 27 84 6.4 14.5 0.00 0.00 0.00 89 1016.5
20260902020133 27 86 6.4 14.5 0.00 0.00 0.00 89 1016.5
20260902015603 27 91 8.0 14.5 0.00 0.00 0.00 89 1016.5
20260902015033 27 96 9.7 16.1 0.00 0.00 0.00 89 1016.3
20260902014033 27 96 11.3 17.7 0.00 0.00 0.00 89 1016.4
20260902013533 27 93 8.0 17.7 0.00 0.00 0.00 90 1016.5
20260902013003 27 91 8.0 14.5 0.00 0.00 0.00 91 1016.4
20260902012503 27 94 8.0 14.5 0.00 0.00 0.00 91 1016.5
20260902011933 27 90 6.4 14.5 0.00 0.00 0.00 92 1016.4
20260902011433 27 90 4.8 12.9 0.00 0.00 0.00 92 1016.4
20260902005833 27 65 1.6 3.2 0.00 0.00 0.00 93 1016.4
20260902005333 27 65 1.6 3.2 0.00 0.00 0.00 92 1016.4
20260902004833 27 71 1.6 3.2 0.00 0.00 0.00 92 1016.4
20260902003607 27 58 1.6 3.2 0.00 0.00 0.00 92 1016.2
20260902003233 27 58 1.6 3.2 0.00 0.00 0.00 92 1016.2
20260902002733 27 48 1.6 3.2 0.00 0.00 0.00 91 1016.3
20260902002233 27 48 1.6 3.2 0.00 0.00 0.00 90 1016.2
20260902001623 27 63 1.6 3.2 0.00 0.00 0.00 90 1016.1
20260902001233 27 63 1.6 3.2 0.00 0.00 0.00 90 1016.1
20260902000234 27 77 1.6 3.2 0.00 0.00 0.00 90 1016.1
20260901232633 27 53 3.2 4.8 0.00 0.00 0.00 87 1015.8
20260901232133 27 50 3.2 4.8 0.00 0.00 0.00 87 1015.9
20260901231103 28 59 1.6 3.2 0.00 0.00 0.00 86 1015.7
20260901230603 28 54 1.6 3.2 0.00 0.00 0.00 85 1015.6
20260901230033 28 42 1.6 3.2 0.00 0.00 0.00 83 1015.7